Погода в Талдане

Россия / Амурская область     53°41′28″N   124°48′44″E
темп.,
°C
ветер,
м/с
пор.,
м/с
влажн.,
%
обл.,
%
осадки,
мм/ч
давл.,
гПа
погр.,
м
20 апреля, вт
вт2000:00−5сз615560 0.0 10181296
03:00−6сз613540 0.0 10181017
06:00−7сз413541 0.0 1018652
09:00−2сз46350 0.0 1017692
12:00+3зсз23265 0.0 10151055
15:00+5юз242535 0.0 10121329
18:00+5юз113897 0.0 101221
21:00−1всв11589 0.0 101310
21 апреля, ср
ср2100:00−3всв23645 0.0 101440
03:00−3св26685 0.0 1014104
06:00−3в3136237 0.0 1013315
09:00+3в474363 0.0 1012599
12:00+8в4639100 0.0 1010881
15:00+12в353897 0.0 1007968
18:00+8св3963100 0.0 1007263
21:00+2с3878100 0.0 1008138
22 апреля, чт
чт2200:00+2ссв2788100 0.0 1009140
03:000ссз258999 0.0 1010105
06:000ссз2888100 0.0 1012217
09:00+3ссз4773100 0.0 1013526
12:00+2ссз61076100 0.1 1016570
15:00+4ссз695995 0.3 10191094
18:00+3с5105818 0.0 10231313
21:00−1ссз511620 0.0 1028858
23 апреля, пт
пт2300:00−3ссз51151100 0.0 1031885
03:00−2ссз51149100 0.0 10331050
06:00−3ссз51048100 0.0 1035941
09:00−1ссз693219 0.0 10361088
12:00+2ссз68280 0.0 10361703
15:00+3ссз58305 0.0 10351994
18:00+3ссз47355 0.0 10342037
21:00−2зсз22550 0.0 103511
24 апреля, сб
сб2400:00−2зсз311555 0.0 1035251
03:00−1зсз413535 0.0 1034497
06:00−1зсз4135478 0.0 1034768
09:00+3сз6134483 0.0 10331702
12:00+6ссз71137100 0.0 10312207
15:00+6ссз61139100 0.0 10302312
18:00+6ссз612475 0.0 10291849
21:00+2сз513615 0.0 1029815